TimeEDT,TemperatureF,Dew PointF,Humidity,Sea Level PressureIn,VisibilityMPH,Wind Direction,Wind SpeedMPH,Gust SpeedMPH,PrecipitationIn,Events,Conditions,WindDirDegrees,DateUTC
12:53 AM,62.1,52.0,70,29.90,10.0,North,15.0,21.9,N/A,,Clear,10,2013-07-24 04:53:00
1:53 AM,59.0,50.0,72,29.91,10.0,North,8.1,-,N/A,,Clear,10,2013-07-24 05:53:00
2:53 AM,57.0,50.0,77,29.91,10.0,North,8.1,-,N/A,,Clear,360,2013-07-24 06:53:00
3:53 AM,55.9,48.9,77,29.91,10.0,North,5.8,-,N/A,,Clear,350,2013-07-24 07:53:00
4:53 AM,54.0,48.9,83,29.92,10.0,North,4.6,-,N/A,,Clear,350,2013-07-24 08:53:00
5:53 AM,53.1,48.9,86,29.94,10.0,North,6.9,-,N/A,,Clear,350,2013-07-24 09:53:00
6:53 AM,54.0,48.9,83,29.96,10.0,North,8.1,-,N/A,,Clear,360,2013-07-24 10:53:00
7:53 AM,57.0,50.0,77,29.99,10.0,North,6.9,-,N/A,,Clear,360,2013-07-24 11:53:00
8:53 AM,60.1,50.0,69,30.00,10.0,NNE,10.4,-,N/A,,Clear,20,2013-07-24 12:53:00
9:53 AM,63.0,50.0,63,30.00,10.0,NNE,11.5,-,N/A,,Clear,30,2013-07-24 13:53:00
10:53 AM,66.0,51.1,59,30.01,10.0,North,9.2,-,N/A,,Clear,10,2013-07-24 14:53:00
11:53 AM,66.9,51.1,57,30.02,10.0,Variable,5.8,-,N/A,,Mostly Cloudy,0,2013-07-24 15:53:00
12:53 PM,66.9,51.1,57,30.04,10.0,NNE,6.9,-,N/A,,Mostly Cloudy,30,2013-07-24 16:53:00
1:53 PM,70.0,51.1,51,30.03,10.0,ENE,6.9,-,N/A,,Scattered Clouds,70,2013-07-24 17:53:00
2:53 PM,71.1,52.0,51,30.01,10.0,NNE,9.2,-,N/A,,Clear,20,2013-07-24 18:53:00
3:53 PM,72.0,52.0,49,30.01,10.0,NNE,5.8,-,N/A,,Partly Cloudy,20,2013-07-24 19:53:00
4:53 PM,71.1,52.0,51,30.01,10.0,East,6.9,17.3,N/A,,Mostly Cloudy,80,2013-07-24 20:53:00
5:53 PM,71.1,51.1,49,30.01,10.0,ENE,4.6,-,N/A,,Mostly Cloudy,60,2013-07-24 21:53:00
6:53 PM,71.1,52.0,51,30.01,10.0,East,4.6,-,N/A,,Mostly Cloudy,80,2013-07-24 22:53:00
7:53 PM,70.0,52.0,53,30.01,10.0,ENE,4.6,-,N/A,,Mostly Cloudy,60,2013-07-24 23:53:00
8:53 PM,66.0,53.1,63,30.03,10.0,SE,3.5,-,N/A,,Clear,130,2013-07-25 00:53:00
9:53 PM,63.0,54.0,72,30.04,10.0,Calm,Calm,-,N/A,,Clear,0,2013-07-25 01:53:00
10:53 PM,60.1,54.0,80,30.04,10.0,Calm,Calm,-,N/A,,Clear,0,2013-07-25 02:53:00
11:53 PM,57.9,54.0,87,30.05,10.0,Calm,Calm,-,N/A,,Clear,0,2013-07-25 03:53:00